Year,Month,Day,Hour,Minute,Value (Times are PST for windspeed in km/hr)
2016,11,22,00,00,15.00
2016,11,22,00,01,13.90
2016,11,22,00,02,14.60
2016,11,22,00,03,14.40
2016,11,22,00,04,15.10
2016,11,22,00,05,14.50
2016,11,22,00,06,14.10
2016,11,22,00,07,13.50
2016,11,22,00,08,15.20
2016,11,22,00,09,15.40
2016,11,22,00,10,17.50
2016,11,22,00,11,17.40
2016,11,22,00,12,14.90
2016,11,22,00,13,15.80
2016,11,22,00,14,17.30
2016,11,22,00,15,18.00
2016,11,22,00,16,16.60
2016,11,22,00,17,19.90
2016,11,22,00,18,17.40
2016,11,22,00,19,17.80
2016,11,22,00,20,18.50
2016,11,22,00,21,19.80
2016,11,22,00,22,17.10
2016,11,22,00,23,16.00
2016,11,22,00,24,16.40
2016,11,22,00,25,16.00
2016,11,22,00,26,16.30
2016,11,22,00,27,17.10
2016,11,22,00,28,17.40
2016,11,22,00,29,18.00
2016,11,22,00,30,17.80
2016,11,22,00,31,18.10
2016,11,22,00,32,18.60
2016,11,22,00,33,18.70
2016,11,22,00,34,20.20
2016,11,22,00,35,20.00
2016,11,22,00,36,18.50
2016,11,22,00,37,20.60
2016,11,22,00,38,19.40
2016,11,22,00,39,18.50
2016,11,22,00,40,18.10
2016,11,22,00,41,21.00
2016,11,22,00,42,20.40
2016,11,22,00,43,19.60
2016,11,22,00,44,20.10
2016,11,22,00,45,17.50
2016,11,22,00,46,19.20
2016,11,22,00,47,18.70
2016,11,22,00,48,16.40
2016,11,22,00,49,15.10
2016,11,22,00,50,15.90
2016,11,22,00,51,16.10
2016,11,22,00,52,16.50
2016,11,22,00,53,14.30
2016,11,22,00,54,13.30
2016,11,22,00,55,16.20
2016,11,22,00,56,16.80
2016,11,22,00,57,17.50
2016,11,22,00,58,15.00
2016,11,22,00,59,18.00
2016,11,22,01,00,17.10
2016,11,22,01,01,17.40
2016,11,22,01,02,18.70
2016,11,22,01,03,19.00
2016,11,22,01,04,17.00
2016,11,22,01,05,17.50
2016,11,22,01,06,18.30
2016,11,22,01,07,16.70
2016,11,22,01,08,16.00
2016,11,22,01,09,19.70
2016,11,22,01,10,20.10
2016,11,22,01,11,21.40
2016,11,22,01,12,19.90
2016,11,22,01,13,19.20
2016,11,22,01,14,21.90
2016,11,22,01,15,22.20
2016,11,22,01,16,24.40
2016,11,22,01,17,20.50
2016,11,22,01,18,19.80
2016,11,22,01,19,20.20
2016,11,22,01,20,20.40
2016,11,22,01,21,19.70
2016,11,22,01,22,15.90
2016,11,22,01,23,17.00
2016,11,22,01,24,20.00
2016,11,22,01,25,19.40
2016,11,22,01,26,20.90
2016,11,22,01,27,20.20
2016,11,22,01,28,17.70
2016,11,22,01,29,18.00
2016,11,22,01,30,21.00
2016,11,22,01,31,20.60
2016,11,22,01,32,18.90
2016,11,22,01,33,20.10
2016,11,22,01,34,21.20
2016,11,22,01,35,20.70
2016,11,22,01,36,20.30
2016,11,22,01,37,20.90
2016,11,22,01,38,23.10
2016,11,22,01,39,23.20
2016,11,22,01,40,23.00
2016,11,22,01,41,22.20
2016,11,22,01,42,21.60
2016,11,22,01,43,24.50
2016,11,22,01,44,27.30
2016,11,22,01,45,23.80
2016,11,22,01,46,27.90
2016,11,22,01,47,28.60
2016,11,22,01,48,27.10
2016,11,22,01,49,29.00
2016,11,22,01,50,27.00
2016,11,22,01,51,26.80
2016,11,22,01,52,28.40
2016,11,22,01,53,29.70
2016,11,22,01,54,29.50
2016,11,22,01,55,30.10
2016,11,22,01,56,30.20
2016,11,22,01,57,25.20
2016,11,22,01,58,25.80
2016,11,22,01,59,25.60
2016,11,22,02,00,28.60
2016,11,22,02,01,25.70
2016,11,22,02,02,26.40
2016,11,22,02,03,29.30
2016,11,22,02,04,29.40
2016,11,22,02,05,29.50
2016,11,22,02,06,38.00
2016,11,22,02,07,34.00
2016,11,22,02,08,30.50
2016,11,22,02,09,28.20
2016,11,22,02,10,27.40
2016,11,22,02,11,28.10
2016,11,22,02,12,29.30
2016,11,22,02,13,26.10
2016,11,22,02,14,24.40
2016,11,22,02,15,26.60
2016,11,22,02,16,28.60
2016,11,22,02,17,27.10
2016,11,22,02,18,25.30
2016,11,22,02,19,25.70
2016,11,22,02,20,23.60
2016,11,22,02,21,27.90
2016,11,22,02,22,24.80
2016,11,22,02,23,23.70
2016,11,22,02,24,24.90
2016,11,22,02,25,27.00
2016,11,22,02,26,27.60
2016,11,22,02,27,28.70
2016,11,22,02,28,28.10
2016,11,22,02,29,28.20
2016,11,22,02,30,23.80
2016,11,22,02,31,27.10
2016,11,22,02,32,23.90
2016,11,22,02,33,24.10
2016,11,22,02,34,25.40
2016,11,22,02,35,23.90
2016,11,22,02,36,28.40
2016,11,22,02,37,28.00
2016,11,22,02,38,29.60
2016,11,22,02,39,28.60
2016,11,22,02,40,29.20
2016,11,22,02,41,26.70
2016,11,22,02,42,25.90
2016,11,22,02,43,26.00
2016,11,22,02,44,29.50
2016,11,22,02,45,29.10
2016,11,22,02,46,30.70
2016,11,22,02,47,32.90
2016,11,22,02,48,30.90
2016,11,22,02,49,27.00
2016,11,22,02,50,31.80
2016,11,22,02,51,33.60
2016,11,22,02,52,31.00
2016,11,22,02,53,32.10
2016,11,22,02,54,33.60
2016,11,22,02,55,37.60
2016,11,22,02,56,34.30
2016,11,22,02,57,30.30
2016,11,22,02,58,32.20
2016,11,22,02,59,28.50
2016,11,22,03,00,28.50
2016,11,22,03,01,29.80
2016,11,22,03,02,28.90
2016,11,22,03,03,29.50
2016,11,22,03,04,36.80
2016,11,22,03,05,36.10
2016,11,22,03,06,35.30
2016,11,22,03,07,32.10
2016,11,22,03,08,33.60
2016,11,22,03,09,28.90
2016,11,22,03,10,31.70
2016,11,22,03,11,34.90
2016,11,22,03,12,31.60
2016,11,22,03,13,37.10
2016,11,22,03,14,34.60
2016,11,22,03,15,37.50
2016,11,22,03,16,35.10
2016,11,22,03,17,28.90
2016,11,22,03,18,29.90
2016,11,22,03,19,32.70
2016,11,22,03,20,29.70
2016,11,22,03,21,33.70
2016,11,22,03,22,31.70
2016,11,22,03,23,34.50
2016,11,22,03,24,40.80
2016,11,22,03,25,32.50
2016,11,22,03,26,34.70
2016,11,22,03,27,31.40
2016,11,22,03,28,32.40
2016,11,22,03,29,36.20
2016,11,22,03,30,33.90
2016,11,22,03,31,35.40
2016,11,22,03,32,34.00
2016,11,22,03,33,39.30
2016,11,22,03,34,37.00
2016,11,22,03,35,32.00
2016,11,22,03,36,37.10
2016,11,22,03,37,34.90
2016,11,22,03,38,34.80
2016,11,22,03,39,41.00
2016,11,22,03,40,42.40
2016,11,22,03,41,41.30
2016,11,22,03,42,39.20
2016,11,22,03,43,45.00
2016,11,22,03,44,41.00
2016,11,22,03,45,38.80
2016,11,22,03,46,42.50
2016,11,22,03,47,43.50
2016,11,22,03,48,39.10
2016,11,22,03,49,42.10
2016,11,22,03,50,41.90
2016,11,22,03,51,38.70
2016,11,22,03,52,43.70
2016,11,22,03,53,41.00
2016,11,22,03,54,35.00
2016,11,22,03,55,42.90
2016,11,22,03,56,43.50
2016,11,22,03,57,35.70
2016,11,22,03,58,44.10
2016,11,22,03,59,36.30
2016,11,22,04,00,30.90
2016,11,22,04,01,34.00
2016,11,22,04,02,42.30
2016,11,22,04,03,46.60
2016,11,22,04,04,39.90
2016,11,22,04,05,41.10
2016,11,22,04,06,42.40
2016,11,22,04,07,43.10
2016,11,22,04,08,42.50
2016,11,22,04,09,39.70
2016,11,22,04,10,37.60
2016,11,22,04,11,37.50
2016,11,22,04,12,36.90
2016,11,22,04,13,37.30
2016,11,22,04,14,37.70
2016,11,22,04,15,35.60
2016,11,22,04,16,42.70
2016,11,22,04,17,38.60
2016,11,22,04,18,42.10
2016,11,22,04,19,39.50
2016,11,22,04,20,36.00
2016,11,22,04,21,40.30
2016,11,22,04,22,44.40
2016,11,22,04,23,39.20
2016,11,22,04,24,42.80
2016,11,22,04,25,33.40
2016,11,22,04,26,36.30
2016,11,22,04,27,35.90
2016,11,22,04,28,34.40
2016,11,22,04,29,37.50
2016,11,22,04,30,41.90
2016,11,22,04,31,46.30
2016,11,22,04,32,38.10
2016,11,22,04,33,37.50
2016,11,22,04,34,40.60
2016,11,22,04,35,44.10
2016,11,22,04,36,43.30
2016,11,22,04,37,41.70
2016,11,22,04,38,33.80
2016,11,22,04,39,36.20
2016,11,22,04,40,44.60
2016,11,22,04,41,44.20
2016,11,22,04,42,37.10
2016,11,22,04,43,35.50
2016,11,22,04,44,35.70
2016,11,22,04,45,40.50
2016,11,22,04,46,38.50
2016,11,22,04,47,40.00
2016,11,22,04,48,37.70
2016,11,22,04,49,39.00
2016,11,22,04,50,42.60
2016,11,22,04,51,46.60
2016,11,22,04,52,44.60
2016,11,22,04,53,39.40
2016,11,22,04,54,44.10
2016,11,22,04,55,37.50
2016,11,22,04,56,34.30
2016,11,22,04,57,37.20
2016,11,22,04,58,43.40
2016,11,22,04,59,44.90
2016,11,22,05,00,46.70
2016,11,22,05,01,46.00
2016,11,22,05,02,51.60
2016,11,22,05,03,41.40
2016,11,22,05,04,44.70
2016,11,22,05,05,50.20
2016,11,22,05,06,48.20
2016,11,22,05,07,44.10
2016,11,22,05,08,53.20
2016,11,22,05,09,48.50
2016,11,22,05,10,46.00
2016,11,22,05,11,42.80
2016,11,22,05,12,47.30
2016,11,22,05,13,40.90
2016,11,22,05,14,39.50
2016,11,22,05,15,47.10
2016,11,22,05,16,45.70
2016,11,22,05,17,44.70
2016,11,22,05,18,49.30
2016,11,22,05,19,48.00
2016,11,22,05,20,50.90
2016,11,22,05,21,47.90
2016,11,22,05,22,46.50
2016,11,22,05,23,48.60
2016,11,22,05,24,53.30
2016,11,22,05,25,41.70
2016,11,22,05,26,47.20
2016,11,22,05,27,43.90
2016,11,22,05,28,39.80
2016,11,22,05,29,42.40
2016,11,22,05,30,37.30
2016,11,22,05,31,38.60
2016,11,22,05,32,48.90
2016,11,22,05,33,43.30
2016,11,22,05,34,38.20
2016,11,22,05,35,41.60
2016,11,22,05,36,40.20
2016,11,22,05,37,37.40
2016,11,22,05,38,39.20
2016,11,22,05,39,35.60
2016,11,22,05,40,42.00
2016,11,22,05,41,45.20
2016,11,22,05,42,39.10
2016,11,22,05,43,34.80
2016,11,22,05,44,40.60
2016,11,22,05,45,42.50
2016,11,22,05,46,34.00
2016,11,22,05,47,39.20
2016,11,22,05,48,42.10
2016,11,22,05,49,39.50
2016,11,22,05,50,43.40
2016,11,22,05,51,46.90
2016,11,22,05,52,38.10
2016,11,22,05,53,45.90
2016,11,22,05,54,43.60
2016,11,22,05,55,43.30
2016,11,22,05,56,49.30
2016,11,22,05,57,45.10
2016,11,22,05,58,42.20
2016,11,22,05,59,39.10
2016,11,22,06,00,48.70
2016,11,22,06,01,45.10
2016,11,22,06,02,45.30
2016,11,22,06,03,47.70
2016,11,22,06,04,41.60
2016,11,22,06,05,49.40
2016,11,22,06,06,44.50
2016,11,22,06,07,45.10
2016,11,22,06,08,41.30
2016,11,22,06,09,39.10
2016,11,22,06,10,47.00
2016,11,22,06,11,39.60
2016,11,22,06,12,45.50
2016,11,22,06,13,45.20
2016,11,22,06,14,47.30
2016,11,22,06,15,39.30
2016,11,22,06,16,43.20
2016,11,22,06,17,39.40
2016,11,22,06,18,34.60
2016,11,22,06,19,36.70
2016,11,22,06,20,35.20
2016,11,22,06,21,42.00
2016,11,22,06,22,38.90
2016,11,22,06,23,38.30
2016,11,22,06,24,38.70
2016,11,22,06,25,36.80
2016,11,22,06,26,40.90
2016,11,22,06,27,45.40
2016,11,22,06,28,40.60
2016,11,22,06,29,34.80
2016,11,22,06,30,30.20
2016,11,22,06,31,33.00
2016,11,22,06,32,35.60
2016,11,22,06,33,39.40
2016,11,22,06,34,35.50
2016,11,22,06,35,38.20
2016,11,22,06,36,37.60
2016,11,22,06,37,37.00
2016,11,22,06,38,31.20
2016,11,22,06,39,39.40
2016,11,22,06,40,43.40
2016,11,22,06,41,36.00
2016,11,22,06,42,38.60
2016,11,22,06,43,45.40
2016,11,22,06,44,38.30
2016,11,22,06,45,46.00
2016,11,22,06,46,47.80
2016,11,22,06,47,44.40
2016,11,22,06,48,43.60
2016,11,22,06,49,44.70
2016,11,22,06,50,40.30
2016,11,22,06,51,34.20
2016,11,22,06,52,42.40
2016,11,22,06,53,41.50
2016,11,22,06,54,42.50
2016,11,22,06,55,43.10
2016,11,22,06,56,33.70
2016,11,22,06,57,33.20
2016,11,22,06,58,39.30
2016,11,22,06,59,38.00
2016,11,22,07,00,46.80
2016,11,22,07,01,46.80
2016,11,22,07,02,41.10
2016,11,22,07,03,45.60
2016,11,22,07,04,41.80
2016,11,22,07,05,45.90
2016,11,22,07,06,49.70
2016,11,22,07,07,39.60
2016,11,22,07,08,43.80
2016,11,22,07,09,47.20
2016,11,22,07,10,49.00
2016,11,22,07,11,40.30
2016,11,22,07,12,42.70
2016,11,22,07,13,43.20
2016,11,22,07,14,41.60
2016,11,22,07,15,44.90
2016,11,22,07,16,42.10
2016,11,22,07,17,39.20
2016,11,22,07,18,44.30
2016,11,22,07,19,41.20
2016,11,22,07,20,46.60
2016,11,22,07,21,43.40
2016,11,22,07,22,45.10
2016,11,22,07,23,43.40
2016,11,22,07,24,38.30
2016,11,22,07,25,36.70
2016,11,22,07,26,38.50
2016,11,22,07,27,36.00
2016,11,22,07,28,47.80
2016,11,22,07,29,40.20
2016,11,22,07,30,42.40
2016,11,22,07,31,38.80
2016,11,22,07,32,36.30
2016,11,22,07,33,39.40
2016,11,22,07,34,35.50
2016,11,22,07,35,47.90
2016,11,22,07,36,48.10
2016,11,22,07,37,44.60
2016,11,22,07,38,40.10
2016,11,22,07,39,41.20
2016,11,22,07,40,38.20
2016,11,22,07,41,34.60
2016,11,22,07,42,38.40
2016,11,22,07,43,40.10
2016,11,22,07,44,37.90
2016,11,22,07,45,36.40
2016,11,22,07,46,39.30
2016,11,22,07,47,37.40
2016,11,22,07,48,38.30
2016,11,22,07,49,36.80
2016,11,22,07,50,37.50
2016,11,22,07,51,36.80
2016,11,22,07,52,39.80
2016,11,22,07,53,38.50
2016,11,22,07,54,34.80
2016,11,22,07,55,39.70
2016,11,22,07,56,42.30
2016,11,22,07,57,38.40
2016,11,22,07,58,40.50
2016,11,22,07,59,35.20
2016,11,22,08,00,36.50
2016,11,22,08,01,38.40
2016,11,22,08,02,39.20
2016,11,22,08,03,31.00
2016,11,22,08,04,39.30
2016,11,22,08,05,33.00
2016,11,22,08,06,39.40
2016,11,22,08,07,41.00
2016,11,22,08,08,40.30
2016,11,22,08,09,39.00
2016,11,22,08,10,41.10
2016,11,22,08,11,41.60
2016,11,22,08,12,43.90
2016,11,22,08,13,42.20
2016,11,22,08,14,38.40
2016,11,22,08,15,35.30
2016,11,22,08,16,40.30
2016,11,22,08,17,40.30
2016,11,22,08,18,39.00
2016,11,22,08,19,40.70
2016,11,22,08,20,38.80
2016,11,22,08,21,32.70
2016,11,22,08,22,33.50
2016,11,22,08,23,35.90
2016,11,22,08,24,26.40
2016,11,22,08,25,32.50
2016,11,22,08,26,37.70
2016,11,22,08,27,34.70
2016,11,22,08,28,32.50
2016,11,22,08,29,34.10
2016,11,22,08,30,32.90
2016,11,22,08,31,39.70
2016,11,22,08,32,35.50
2016,11,22,08,33,39.10
2016,11,22,08,34,39.40
2016,11,22,08,35,37.20
2016,11,22,08,36,38.80
2016,11,22,08,37,35.50
2016,11,22,08,38,39.70
2016,11,22,08,39,37.40
2016,11,22,08,40,45.30
2016,11,22,08,41,42.10
2016,11,22,08,42,42.70
2016,11,22,08,43,38.70
2016,11,22,08,44,36.60
2016,11,22,08,45,38.10
2016,11,22,08,46,35.50
2016,11,22,08,47,36.90
2016,11,22,08,48,40.20
2016,11,22,08,49,37.60
2016,11,22,08,50,37.50
2016,11,22,08,51,40.00
2016,11,22,08,52,37.50
2016,11,22,08,53,38.70
2016,11,22,08,54,37.20
2016,11,22,08,55,41.20
2016,11,22,08,56,37.10
2016,11,22,08,57,34.80
2016,11,22,08,58,33.40
2016,11,22,08,59,31.30
2016,11,22,09,00,36.50
2016,11,22,09,01,40.60
2016,11,22,09,02,38.30
2016,11,22,09,03,40.10
2016,11,22,09,04,41.80
2016,11,22,09,05,40.80
2016,11,22,09,06,38.80
2016,11,22,09,07,38.10
2016,11,22,09,08,38.10
2016,11,22,09,09,41.00
2016,11,22,09,10,35.80
2016,11,22,09,11,35.20
2016,11,22,09,12,29.40
2016,11,22,09,13,36.50
2016,11,22,09,14,31.90
2016,11,22,09,15,37.10
2016,11,22,09,16,38.00
2016,11,22,09,17,32.10
2016,11,22,09,18,35.20
2016,11,22,09,19,35.80
2016,11,22,09,20,36.50
2016,11,22,09,21,37.70
2016,11,22,09,22,35.60
2016,11,22,09,23,30.60
2016,11,22,09,24,30.10
2016,11,22,09,25,31.20
2016,11,22,09,26,35.80
2016,11,22,09,27,35.00
2016,11,22,09,28,30.50
2016,11,22,09,29,32.80
2016,11,22,09,30,31.50
2016,11,22,09,31,30.90
2016,11,22,09,32,36.80
2016,11,22,09,33,40.80
2016,11,22,09,34,34.10
2016,11,22,09,35,33.90
2016,11,22,09,36,31.10
2016,11,22,09,37,37.40
2016,11,22,09,38,35.60
2016,11,22,09,39,30.20
2016,11,22,09,40,35.20
2016,11,22,09,41,31.80
2016,11,22,09,42,35.50
2016,11,22,09,43,35.50
2016,11,22,09,44,29.30
2016,11,22,09,45,35.20
2016,11,22,09,46,31.40
2016,11,22,09,47,32.70
2016,11,22,09,48,38.10
2016,11,22,09,49,38.30
2016,11,22,09,50,29.70
2016,11,22,09,51,33.60
2016,11,22,09,52,29.00
2016,11,22,09,53,36.70
2016,11,22,09,54,29.10
2016,11,22,09,55,24.70
2016,11,22,09,56,32.80
2016,11,22,09,57,35.20
2016,11,22,09,58,30.80
2016,11,22,09,59,34.90
2016,11,22,10,00,31.40
2016,11,22,10,01,28.10
2016,11,22,10,02,31.30
2016,11,22,10,03,39.00
2016,11,22,10,04,34.30
2016,11,22,10,05,36.50
2016,11,22,10,06,31.20
2016,11,22,10,07,36.70
2016,11,22,10,08,43.10
2016,11,22,10,09,40.60
2016,11,22,10,10,31.10
2016,11,22,10,11,31.40
2016,11,22,10,12,39.80
2016,11,22,10,13,39.30
2016,11,22,10,14,44.80
2016,11,22,10,15,45.50
2016,11,22,10,16,41.80
2016,11,22,10,17,42.20
2016,11,22,10,18,43.60
2016,11,22,10,19,36.80
2016,11,22,10,20,43.10
2016,11,22,10,21,38.60
2016,11,22,10,22,36.80
2016,11,22,10,23,36.90
2016,11,22,10,24,34.80
2016,11,22,10,25,34.40
2016,11,22,10,26,38.50
2016,11,22,10,27,34.30
2016,11,22,10,28,32.10
2016,11,22,10,29,36.80
2016,11,22,10,30,39.60
2016,11,22,10,31,28.70
2016,11,22,10,32,29.80
2016,11,22,10,33,35.10
2016,11,22,10,34,33.40
2016,11,22,10,35,38.20
2016,11,22,10,36,33.40
2016,11,22,10,37,30.20
2016,11,22,10,38,32.00
2016,11,22,10,39,35.00
2016,11,22,10,40,33.60
2016,11,22,10,41,33.50
2016,11,22,10,42,36.10
2016,11,22,10,43,34.10
2016,11,22,10,44,31.50
2016,11,22,10,45,30.60
2016,11,22,10,46,26.90
2016,11,22,10,47,28.70
2016,11,22,10,48,28.10
2016,11,22,10,49,32.60
2016,11,22,10,50,31.90
2016,11,22,10,51,26.70
2016,11,22,10,52,32.60
2016,11,22,10,53,32.50
2016,11,22,10,54,33.30
2016,11,22,10,55,30.90
2016,11,22,10,56,31.00
2016,11,22,10,57,35.10
2016,11,22,10,58,35.40
2016,11,22,10,59,35.00
2016,11,22,11,00,35.20
2016,11,22,11,01,32.40
2016,11,22,11,02,33.60
2016,11,22,11,03,32.80
2016,11,22,11,04,32.20
2016,11,22,11,05,33.50
2016,11,22,11,06,32.20
2016,11,22,11,07,32.30
2016,11,22,11,08,34.00
2016,11,22,11,09,29.10
2016,11,22,11,10,31.50
2016,11,22,11,11,30.00
2016,11,22,11,12,27.20
2016,11,22,11,13,29.90
2016,11,22,11,14,30.20
2016,11,22,11,15,31.70
2016,11,22,11,16,28.50
2016,11,22,11,17,32.00
2016,11,22,11,18,32.70
2016,11,22,11,19,31.20
2016,11,22,11,20,30.70
2016,11,22,11,21,29.20
2016,11,22,11,22,26.90
2016,11,22,11,23,29.70
2016,11,22,11,24,27.20
2016,11,22,11,25,26.60
2016,11,22,11,26,29.20
2016,11,22,11,27,28.90
2016,11,22,11,28,31.10
2016,11,22,11,29,30.20
2016,11,22,11,30,30.60
2016,11,22,11,31,29.70
2016,11,22,11,32,27.30
2016,11,22,11,33,24.40
2016,11,22,11,34,24.10
2016,11,22,11,35,27.40
2016,11,22,11,36,26.70
2016,11,22,11,37,27.60
2016,11,22,11,38,21.20
2016,11,22,11,39,20.20
2016,11,22,11,40,25.30
2016,11,22,11,41,24.00
2016,11,22,11,42,30.20
2016,11,22,11,43,30.60
2016,11,22,11,44,28.20
2016,11,22,11,45,30.50
2016,11,22,11,46,25.10
2016,11,22,11,47,23.40
2016,11,22,11,48,20.30
2016,11,22,11,49,18.20
2016,11,22,11,50,19.60
2016,11,22,11,51,17.90
2016,11,22,11,52,13.80
2016,11,22,11,53,12.50
2016,11,22,11,54,18.50
2016,11,22,11,55,25.10
2016,11,22,11,56,25.30
2016,11,22,11,57,24.10
2016,11,22,11,58,25.90
2016,11,22,11,59,29.70
2016,11,22,12,00,25.60
2016,11,22,12,01,24.30
2016,11,22,12,02,23.80
2016,11,22,12,03,26.70
2016,11,22,12,04,27.70
2016,11,22,12,05,26.80
2016,11,22,12,06,25.20
2016,11,22,12,07,24.20
2016,11,22,12,08,22.90
2016,11,22,12,09,25.80
2016,11,22,12,10,25.60
2016,11,22,12,11,25.30
2016,11,22,12,12,27.80
2016,11,22,12,13,26.80
2016,11,22,12,14,24.60
2016,11,22,12,15,23.30
2016,11,22,12,16,24.90
2016,11,22,12,17,26.40
2016,11,22,12,18,24.00
2016,11,22,12,19,25.20
2016,11,22,12,20,29.60
2016,11,22,12,21,27.20
2016,11,22,12,22,26.00
2016,11,22,12,23,22.80
2016,11,22,12,24,27.10
2016,11,22,12,25,32.10
2016,11,22,12,26,29.20
2016,11,22,12,27,27.10
2016,11,22,12,28,26.10
2016,11,22,12,29,25.00
2016,11,22,12,30,27.30
2016,11,22,12,31,30.20
2016,11,22,12,32,25.40
2016,11,22,12,33,24.50
2016,11,22,12,34,25.10
2016,11,22,12,35,26.40
2016,11,22,12,36,26.50
2016,11,22,12,37,25.70
2016,11,22,12,38,25.80
2016,11,22,12,39,26.80
2016,11,22,12,40,28.80
2016,11,22,12,41,29.50
2016,11,22,12,42,27.40
2016,11,22,12,43,27.80
2016,11,22,12,44,26.50
2016,11,22,12,45,25.60
2016,11,22,12,46,27.40
2016,11,22,12,47,27.10
2016,11,22,12,48,24.80
2016,11,22,12,49,26.40
2016,11,22,12,50,30.00
2016,11,22,12,51,28.60
2016,11,22,12,52,27.90
2016,11,22,12,53,32.20
2016,11,22,12,54,28.20
2016,11,22,12,55,31.20
2016,11,22,12,56,29.40
2016,11,22,12,57,28.30
2016,11,22,12,58,29.40
2016,11,22,12,59,30.80
2016,11,22,13,00,29.30
2016,11,22,13,01,26.90
2016,11,22,13,02,30.50
2016,11,22,13,03,29.50
2016,11,22,13,04,27.60
2016,11,22,13,05,29.90
2016,11,22,13,06,28.50
2016,11,22,13,07,30.70
2016,11,22,13,08,26.30
2016,11,22,13,09,24.40
2016,11,22,13,10,26.60
2016,11,22,13,11,28.70
2016,11,22,13,12,27.90
2016,11,22,13,13,29.30
2016,11,22,13,14,30.50
2016,11,22,13,15,32.80
2016,11,22,13,16,28.90
2016,11,22,13,17,26.50
2016,11,22,13,18,25.60
2016,11,22,13,19,27.10
2016,11,22,13,20,27.10
2016,11,22,13,21,26.60
2016,11,22,13,22,28.40
2016,11,22,13,23,30.70
2016,11,22,13,24,28.10
2016,11,22,13,25,26.70
2016,11,22,13,26,25.80
2016,11,22,13,27,22.40
2016,11,22,13,28,21.60
2016,11,22,13,29,22.30
2016,11,22,13,30,27.90
2016,11,22,13,31,25.50
2016,11,22,13,32,25.60
2016,11,22,13,33,24.90
2016,11,22,13,34,24.90
2016,11,22,13,35,25.10
2016,11,22,13,36,27.00
2016,11,22,13,37,27.90
2016,11,22,13,38,26.40
2016,11,22,13,39,25.10
2016,11,22,13,40,24.80
2016,11,22,13,41,23.10
2016,11,22,13,42,22.00
2016,11,22,13,43,23.90
2016,11,22,13,44,25.10
2016,11,22,13,45,25.40
2016,11,22,13,46,23.50
2016,11,22,13,47,22.40
2016,11,22,13,48,22.20
2016,11,22,13,49,23.70
2016,11,22,13,50,23.00
2016,11,22,13,51,24.10
2016,11,22,13,52,27.60
2016,11,22,13,53,29.40
2016,11,22,13,54,28.10
2016,11,22,13,55,28.20
2016,11,22,13,56,26.40
2016,11,22,13,57,29.80
2016,11,22,13,58,27.80
2016,11,22,13,59,24.60
2016,11,22,14,00,28.40
2016,11,22,14,01,29.10
2016,11,22,14,02,28.20
2016,11,22,14,03,29.50
2016,11,22,14,04,27.00
2016,11,22,14,05,23.80
2016,11,22,14,06,26.00
2016,11,22,14,07,24.70
2016,11,22,14,08,21.90
2016,11,22,14,09,22.30
2016,11,22,14,10,23.80
2016,11,22,14,11,25.50
2016,11,22,14,12,25.10
2016,11,22,14,13,26.10
2016,11,22,14,14,27.40
2016,11,22,14,15,28.90
2016,11,22,14,16,26.40
2016,11,22,14,17,27.30
2016,11,22,14,18,30.40
2016,11,22,14,19,25.80
2016,11,22,14,20,24.00
2016,11,22,14,21,26.70
2016,11,22,14,22,24.30
2016,11,22,14,23,22.10
2016,11,22,14,24,23.70
2016,11,22,14,25,20.00
2016,11,22,14,26,21.30
2016,11,22,14,27,24.30
2016,11,22,14,28,21.30
2016,11,22,14,29,21.30
2016,11,22,14,30,23.30
2016,11,22,14,31,25.00
2016,11,22,14,32,17.60
2016,11,22,14,33,18.80
2016,11,22,14,34,21.00
2016,11,22,14,35,20.30
2016,11,22,14,36,19.40
2016,11,22,14,37,19.20
2016,11,22,14,38,20.50
2016,11,22,14,39,21.90
2016,11,22,14,40,14.20
2016,11,22,14,41,12.20
2016,11,22,14,42,19.70
2016,11,22,14,43,15.70
2016,11,22,14,44,11.80
2016,11,22,14,45,11.30
2016,11,22,14,46,15.30
2016,11,22,14,47,11.40
2016,11,22,14,48,9.30
2016,11,22,14,49,13.70
2016,11,22,14,50,16.20
2016,11,22,14,51,10.20
2016,11,22,14,52,13.80
2016,11,22,14,53,13.70
2016,11,22,14,54,13.40
2016,11,22,14,55,17.00
2016,11,22,14,56,14.30
2016,11,22,14,57,11.80
2016,11,22,14,58,14.00
2016,11,22,14,59,17.10
2016,11,22,15,00,15.20
2016,11,22,15,01,14.20
2016,11,22,15,02,14.30
2016,11,22,15,03,14.70
2016,11,22,15,04,8.60
2016,11,22,15,05,15.70
2016,11,22,15,06,11.80
2016,11,22,15,07,13.10
2016,11,22,15,08,12.30
2016,11,22,15,09,9.30
2016,11,22,15,10,11.30
2016,11,22,15,11,4.50
2016,11,22,15,12,7.70
2016,11,22,15,13,12.10
2016,11,22,15,14,7.90
2016,11,22,15,15,8.40
2016,11,22,15,16,9.90
2016,11,22,15,17,10.90
2016,11,22,15,18,11.10
2016,11,22,15,19,8.20
2016,11,22,15,20,9.90
2016,11,22,15,21,9.80
2016,11,22,15,22,11.10
2016,11,22,15,23,8.80
2016,11,22,15,24,9.70
2016,11,22,15,25,11.50
2016,11,22,15,26,13.80
2016,11,22,15,27,12.80
2016,11,22,15,28,11.00
2016,11,22,15,29,12.20
2016,11,22,15,30,15.20
2016,11,22,15,31,17.90
2016,11,22,15,32,18.30
2016,11,22,15,33,13.40
2016,11,22,15,34,14.70
2016,11,22,15,35,18.80
2016,11,22,15,36,17.40
2016,11,22,15,37,17.00
2016,11,22,15,38,11.30
2016,11,22,15,39,9.80
2016,11,22,15,40,6.60
2016,11,22,15,41,8.10
2016,11,22,15,42,8.00
2016,11,22,15,43,7.70
2016,11,22,15,44,7.60
2016,11,22,15,45,10.50
2016,11,22,15,46,8.30
2016,11,22,15,47,6.70
2016,11,22,15,48,5.90
2016,11,22,15,49,10.60
2016,11,22,15,50,9.00
2016,11,22,15,51,11.90
2016,11,22,15,52,8.60
2016,11,22,15,53,9.20
2016,11,22,15,54,10.80
2016,11,22,15,55,9.60
2016,11,22,15,56,16.10
2016,11,22,15,57,9.60
2016,11,22,15,58,5.60
2016,11,22,15,59,8.30
2016,11,22,16,00,7.20
2016,11,22,16,01,7.80
2016,11,22,16,02,15.10
2016,11,22,16,03,16.50
2016,11,22,16,04,13.90
2016,11,22,16,05,13.50
2016,11,22,16,06,14.40
2016,11,22,16,07,13.50
2016,11,22,16,08,9.60
2016,11,22,16,09,12.30
2016,11,22,16,10,13.00
2016,11,22,16,11,11.30
2016,11,22,16,12,7.90
2016,11,22,16,13,11.00
2016,11,22,16,14,12.00
2016,11,22,16,15,7.30
2016,11,22,16,16,11.60
2016,11,22,16,17,15.40
2016,11,22,16,18,11.50
2016,11,22,16,19,11.20
2016,11,22,16,20,10.00
2016,11,22,16,21,10.40
2016,11,22,16,22,14.10
2016,11,22,16,23,12.10
2016,11,22,16,24,16.50
2016,11,22,16,25,11.90
2016,11,22,16,26,13.60
2016,11,22,16,27,19.30
2016,11,22,16,28,18.90
2016,11,22,16,29,25.40
2016,11,22,16,30,29.80
2016,11,22,16,31,24.00
2016,11,22,16,32,26.00
2016,11,22,16,33,26.10
2016,11,22,16,34,19.30
2016,11,22,16,35,29.80
2016,11,22,16,36,28.70
2016,11,22,16,37,29.30
2016,11,22,16,38,26.70
2016,11,22,16,39,27.50
2016,11,22,16,40,25.00
2016,11,22,16,41,24.30
2016,11,22,16,42,25.50
2016,11,22,16,43,26.00
2016,11,22,16,44,27.20
2016,11,22,16,45,20.60
2016,11,22,16,46,16.90
2016,11,22,16,47,17.80
2016,11,22,16,48,19.90
2016,11,22,16,49,18.70
2016,11,22,16,50,20.10
2016,11,22,16,51,18.50
2016,11,22,16,52,13.90
2016,11,22,16,53,13.80
2016,11,22,16,54,14.30
2016,11,22,16,55,18.70
2016,11,22,16,56,13.50
2016,11,22,16,57,16.60
2016,11,22,16,58,19.90
2016,11,22,16,59,14.40
2016,11,22,17,00,12.80
2016,11,22,17,01,12.90
2016,11,22,17,02,19.50
2016,11,22,17,03,12.30
2016,11,22,17,04,15.30
2016,11,22,17,05,16.30
2016,11,22,17,06,14.20
2016,11,22,17,07,14.80
2016,11,22,17,08,11.30
2016,11,22,17,09,18.30
2016,11,22,17,10,14.20
2016,11,22,17,11,20.30
2016,11,22,17,12,18.80
2016,11,22,17,13,15.20
2016,11,22,17,14,13.40
2016,11,22,17,15,16.20
2016,11,22,17,16,12.10
2016,11,22,17,17,11.20
2016,11,22,17,18,8.60
2016,11,22,17,19,8.70
2016,11,22,17,20,11.40